Location: Gwatt
(46.7204°N, 7.6223°E)
Time: 11:06:28
(UTC+00:00)

Transit 2A - Pass Details

Date: 16 May 2021
Orbit: 601 x 958 km, 66.7° (Epoch: 15 June)

Event Time Altitude Azimuth Distance (km) Brightness Sun altitude
Exits shadow 01:40:24 18° 269° (W) 1,509 7.2 -17.5°
Maximum altitude 01:42:44 28° 315° (NW) 1,137 7.0 -17.3°
Drops below altitude 10° 01:46:31 10° 16° (NNE) 1,953 9.3 -16.9°
Sets 01:49:02 0° 28° (NNE) 2,866 10.7 -16.7°
